Weather History for Inverness, FL

Change the Weather History Date:

Tuesday, February 18, 2014

  Actual Average (KOCF) Record (KOCF)
Temperature  
Mean Temperature 58 °F -  
Max Temperature 80 °F 71 °F 82 °F (2000)
Min Temperature 37 °F 46 °F 24 °F (2013)
Degree Days  
Heating Degree Days 6    
Growing Degree Days 8 (Base 50)    
Moisture  
Dew Point 43 °F    
Average Humidity 63    
Maximum Humidity 100    
Minimum Humidity 23    
Precipitation  
Precipitation 0.00 in - - ()
Sea Level Pressure  
Sea Level Pressure 30.21 in    
Wind  
Wind Speed 1 mph (SE)    
Max Wind Speed 6 mph    
Max Gust Speed -    
Visibility 10 miles    
Events      
Averages and records for this station are not official NWS values.
T = Trace of Precipitation, MM = Missing Value Source: NWS Daily Summary

Daily Weather History Graph

Daily Weather History Graph

Search for Another Location

Airport:

Trip Planner

Search our weather history database for the weather conditions in past years. The results will help you decide how hot, cold, wet, or windy it might be!

Date:

Astronomy

Feb. 18, 2014 Rise Set
Actual Time 7:05 AM EST 6:21 PM EST
Civil Twilight 6:41 AM EST 6:45 PM EST
Nautical Twilight 6:13 AM EST 7:13 PM EST
Astronomical Twilight 5:45 AM EST 7:40 PM EST
Moon 9:51 PM EST (2/18) 8:56 AM EST (2/18)
Length of Visible Light 12h 04m
Length of Day
11h 16m
Waning Gibbous, 87% of the Moon is Illuminated
Feb 18
Waning Gibbous
Feb 22
Last Quarter
Mar 1
New
Mar 8
First Quarter
Mar 16
Full

Hourly Weather History & Observations

Time (EST) Temp. Dew Point Humidity Pressure Visibility Wind Dir Wind Speed Gust Speed Precip Events Conditions
12:15 AM 42.8 °F 35.6 °F 76% 30.22 in 10.0 mi Calm Calm - N/A   Clear
12:35 AM 42.8 °F 35.6 °F 76% 30.22 in 10.0 mi Calm Calm - N/A   Clear
12:55 AM 41.0 °F 35.6 °F 81% 30.22 in 10.0 mi Calm Calm - N/A   Clear
1:15 AM 41.0 °F 35.6 °F 81% 30.22 in 10.0 mi Calm Calm - N/A   Clear
1:35 AM 41.0 °F 35.6 °F 81% 30.22 in 10.0 mi Calm Calm - N/A   Clear
1:55 AM 39.2 °F 35.6 °F 87% 30.22 in 10.0 mi Calm Calm - N/A   Clear
2:15 AM 39.2 °F 35.6 °F 87% 30.22 in 10.0 mi Calm Calm - N/A   Clear
2:35 AM 39.2 °F 35.6 °F 87% 30.22 in 10.0 mi Calm Calm - N/A   Clear
2:55 AM 37.4 °F 35.6 °F 93% 30.21 in 10.0 mi Calm Calm - N/A   Clear
3:15 AM 37.4 °F 35.6 °F 93% 30.21 in 10.0 mi Calm Calm - N/A   Clear
3:35 AM 37.4 °F 35.6 °F 93% 30.21 in 10.0 mi Calm Calm - N/A   Clear
3:55 AM 37.4 °F 37.4 °F 100% 30.21 in 10.0 mi Calm Calm - N/A   Clear
4:15 AM 39.2 °F 37.4 °F 93% 30.21 in 10.0 mi Calm Calm - N/A   Clear
4:35 AM 41.0 °F 37.4 °F 87% 30.21 in 10.0 mi Calm Calm - N/A   Clear
4:55 AM 41.0 °F 37.4 °F 87% 30.21 in 10.0 mi Calm Calm - N/A   Clear
5:15 AM 41.0 °F 37.4 °F 87% 30.21 in 10.0 mi Calm Calm - N/A   Clear
5:35 AM 41.0 °F 39.2 °F 93% 30.21 in 10.0 mi Calm Calm - N/A   Clear
5:55 AM 42.8 °F 39.2 °F 87% 30.21 in 10.0 mi Calm Calm - N/A   Clear
6:15 AM 41.0 °F 39.2 °F 93% 30.22 in 10.0 mi Calm Calm - N/A   Clear
6:35 AM 41.0 °F 39.2 °F 93% 30.22 in 10.0 mi Calm Calm - N/A   Clear
6:55 AM 41.0 °F 41.0 °F 100% 30.22 in 10.0 mi Calm Calm - N/A   Clear
7:15 AM 41.0 °F 41.0 °F 100% 30.23 in 10.0 mi Calm Calm - N/A   Clear
7:35 AM 42.8 °F 41.0 °F 93% 30.23 in 10.0 mi Calm Calm - N/A   Clear
7:55 AM 44.6 °F 42.8 °F 93% 30.23 in 10.0 mi Calm Calm - N/A   Clear
8:15 AM 50.0 °F 42.8 °F 76% 30.24 in 10.0 mi Calm Calm - N/A   Clear
8:35 AM 55.4 °F 39.2 °F 54% 30.24 in 10.0 mi Calm Calm - N/A   Clear
8:55 AM 60.8 °F 35.6 °F 39% 30.24 in 10.0 mi South 3.5 mph - N/A   Clear
9:15 AM 64.4 °F 30.2 °F 28% 30.24 in 10.0 mi South 3.5 mph - N/A   Clear
9:35 AM 68.0 °F 28.4 °F 23% 30.25 in 10.0 mi SSE 3.5 mph - N/A   Clear
9:55 AM 69.8 °F 32.0 °F 25% 30.25 in 5.0 mi South 3.5 mph - N/A   Haze
10:15 AM 71.6 °F 33.8 °F 25% 30.25 in 5.0 mi Calm Calm - N/A   Haze
10:35 AM 73.4 °F 33.8 °F 23% 30.25 in 7.0 mi ESE 3.5 mph - N/A   Clear
10:55 AM 73.4 °F 35.6 °F 25% 30.25 in 10.0 mi ESE 3.5 mph - N/A   Clear
11:15 AM 75.2 °F 41.0 °F 29% 30.25 in 10.0 mi SSE 3.5 mph - N/A   Clear
11:35 AM 77.0 °F 41.0 °F 28% 30.25 in 10.0 mi Calm Calm - N/A   Clear
11:55 AM 77.0 °F 44.6 °F 32% 30.25 in 10.0 mi Calm Calm - N/A   Clear
12:15 PM 77.0 °F 46.4 °F 34% 30.24 in 10.0 mi Calm Calm - N/A   Clear
12:35 PM 77.0 °F 46.4 °F 34% 30.23 in 10.0 mi Calm Calm - N/A   Clear
12:55 PM 78.8 °F 46.4 °F 32% 30.22 in 10.0 mi East 4.6 mph - N/A   Clear
1:15 PM 78.8 °F 46.4 °F 32% 30.21 in 10.0 mi East 5.8 mph - N/A   Clear
1:35 PM 78.8 °F 46.4 °F 32% 30.20 in 10.0 mi Calm Calm - N/A   Clear
1:55 PM 80.6 °F 46.4 °F 30% 30.19 in 10.0 mi ESE 3.5 mph - N/A   Clear
2:15 PM 78.8 °F 44.6 °F 30% 30.18 in 10.0 mi Calm Calm - N/A   Clear
2:35 PM 78.8 °F 46.4 °F 32% 30.17 in 10.0 mi East 4.6 mph - N/A   Clear
2:55 PM 80.6 °F 44.6 °F 28% 30.17 in 10.0 mi Calm Calm - N/A   Clear
3:15 PM 80.6 °F 46.4 °F 30% 30.17 in 10.0 mi SE 4.6 mph - N/A   Clear
3:35 PM 80.6 °F 46.4 °F 30% 30.17 in 10.0 mi North 5.8 mph - N/A   Clear
3:55 PM 78.8 °F 44.6 °F 30% 30.17 in 10.0 mi West 3.5 mph - N/A   Clear
4:15 PM 78.8 °F 44.6 °F 30% 30.17 in 10.0 mi Calm Calm - N/A   Clear
4:35 PM 78.8 °F 46.4 °F 32% 30.17 in 10.0 mi Calm Calm - N/A   Clear
4:55 PM 77.0 °F 48.2 °F 36% 30.17 in 10.0 mi WNW 3.5 mph - N/A   Clear
5:15 PM 77.0 °F 48.2 °F 36% 30.17 in 10.0 mi WNW 3.5 mph - N/A   Clear
5:35 PM 73.4 °F 50.0 °F 44% 30.17 in 10.0 mi Calm Calm - N/A   Clear
5:55 PM 71.6 °F 50.0 °F 46% 30.17 in 10.0 mi Calm Calm - N/A   Clear
6:15 PM 69.8 °F 50.0 °F 49% 30.18 in 10.0 mi Calm Calm - N/A   Clear
6:35 PM 68.0 °F 51.8 °F 56% 30.19 in 10.0 mi Calm Calm - N/A   Clear
6:55 PM 64.4 °F 51.8 °F 64% 30.19 in 10.0 mi Calm Calm - N/A   Clear
7:15 PM 62.6 °F 51.8 °F 68% 30.19 in 10.0 mi Calm Calm - N/A   Clear
7:35 PM 62.6 °F 51.8 °F 68% 30.19 in 10.0 mi Calm Calm - N/A   Clear
7:55 PM 60.8 °F 51.8 °F 72% 30.19 in 10.0 mi Calm Calm - N/A   Clear
8:15 PM 59.0 °F 51.8 °F 77% 30.19 in 10.0 mi Calm Calm - N/A   Clear
8:35 PM 59.0 °F 51.8 °F 77% 30.20 in 10.0 mi Calm Calm - N/A   Clear
8:55 PM 57.2 °F 51.8 °F 82% 30.19 in 10.0 mi Calm Calm - N/A   Clear
9:15 PM 55.4 °F 51.8 °F 88% 30.19 in 10.0 mi Calm Calm - N/A   Clear
9:35 PM 59.0 °F 51.8 °F 77% 30.21 in 10.0 mi Calm Calm - N/A   Clear
9:55 PM 55.4 °F 51.8 °F 88% 30.21 in 10.0 mi Calm Calm - N/A   Clear
10:15 PM 55.4 °F 51.8 °F 88% 30.20 in 10.0 mi Calm Calm - N/A   Clear
10:35 PM 55.4 °F 51.8 °F 88% 30.21 in 10.0 mi Calm Calm - N/A   Clear
10:55 PM 55.4 °F 51.8 °F 88% 30.21 in 10.0 mi Calm Calm - N/A   Clear
11:15 PM 53.6 °F 51.8 °F 94% 30.19 in 10.0 mi Calm Calm - N/A   Clear
11:35 PM 53.6 °F 51.8 °F 94% 30.19 in 10.0 mi Calm Calm - N/A   Clear
11:55 PM 53.6 °F 51.8 °F 94% 30.19 in 10.0 mi Calm Calm - N/A   Clear